Lawrence, KS

3:04 AM CDT on July 28, 2017 (GMT -0500)
Lawrence Municipal

Weather History for KLWC - May, 2014

Change the Weather History Date:

Friday, May 16, 2014

  Actual Average Record
Temperature  
Mean Temperature 47 °F 65 °F  
Max Temperature 62 °F 76 °F 93 °F (2001)
Min Temperature 32 °F 53 °F 32 °F (2014)
Degree Days  
Heating Degree Days 18 3  
Month to date heating degree days 91 76  
Since 1 July heating degree days 5612 5055  
Cooling Degree Days 0 3  
Month to date cooling degree days 54 30  
Year to date cooling degree days 64 53  
Moisture  
Dew Point 33 °F    
Average Humidity 59    
Maximum Humidity 89    
Minimum Humidity 29    
Precipitation  
Precipitation T in 0.15 in 1.71 in (2015)
Month to date precipitation 1.09 2.49  
Year to date precipitation 6.68 11.19  
Sea Level Pressure  
Sea Level Pressure 30.14 in    
Wind  
Wind Speed 6 mph (NW)    
Max Wind Speed 16 mph    
Max Gust Speed 21 mph    
Visibility 10 miles    
Events      
T = Trace of Precipitation, MM = Missing Value Source: NWS Daily Summary

Daily Weather History Graph

Daily Weather History Graph

Search for Another Location

Airport or City:

Trip Planner

Search our weather history database for the weather conditions in past years. The results will help you decide how hot, cold, wet, or windy it might be!

Date:

Astronomy

May. 16, 2014 Rise Set
Actual Time 6:07 AM CDT 8:27 PM CDT
Civil Twilight 5:37 AM CDT 8:58 PM CDT
Nautical Twilight 4:59 AM CDT 9:35 PM CDT
Astronomical Twilight 4:18 AM CDT 10:16 PM CDT
Moon 10:35 PM CDT (5/16) 7:49 AM CDT (5/16)
Length of Visible Light 15h 21m
Length of Day
14h 20m
Waning Gibbous, 95% of the Moon is Illuminated
May 16
Waning Gibbous
May 21
Last Quarter
May 28
New
Jun 5
First Quarter
Jun 12
Full

Hourly Weather History & Observations

Time (CDT) Temp. Windchill Dew Point Humidity Pressure Visibility Wind Dir Wind Speed Gust Speed Precip Events Conditions
1:52 AM 37.0 °F 34.5 °F 32.0 °F 82% 30.16 in 10.0 mi NNW 3.5 mph - N/A   Clear
3:52 AM 34.0 °F 28.8 °F 30.0 °F 85% 30.15 in 10.0 mi NW 5.8 mph - N/A   Clear
4:52 AM 32.0 °F 26.4 °F 28.9 °F 88% 30.15 in 10.0 mi NW 5.8 mph - N/A   Clear
5:52 AM 32.0 °F 25.6 °F 28.9 °F 88% 30.15 in 10.0 mi NNW 6.9 mph - N/A   Clear
6:52 AM 34.0 °F 28.8 °F 30.0 °F 85% 30.16 in 10.0 mi NNW 5.8 mph - N/A   Clear
7:52 AM 43.0 °F 40.3 °F 36.0 °F 76% 30.16 in 10.0 mi NW 4.6 mph - N/A   Clear
8:52 AM 48.9 °F - 34.0 °F 56% 30.15 in 10.0 mi West 3.5 mph - N/A   Clear
9:52 AM 55.9 °F - 27.0 °F 33% 30.15 in 10.0 mi North 8.1 mph - N/A   Clear
10:52 AM 57.9 °F - 27.0 °F 31% 30.14 in 10.0 mi North 12.7 mph - N/A   Clear
11:52 AM 57.9 °F - 28.9 °F 33% 30.12 in 10.0 mi NNW 10.4 mph 17.3 mph N/A   Clear
12:52 PM 60.1 °F - 30.0 °F 32% 30.12 in 10.0 mi WNW 5.8 mph - N/A   Clear
1:52 PM 60.1 °F - 28.9 °F 31% 30.11 in 10.0 mi NNW 4.6 mph - N/A   Scattered Clouds
3:52 PM 59.0 °F - 28.9 °F 32% 30.10 in 10.0 mi Variable 3.5 mph - N/A   Overcast
4:52 PM 57.0 °F - 32.0 °F 39% 30.11 in 10.0 mi SW 8.1 mph - N/A   Overcast
5:52 PM 55.0 °F - 34.0 °F 45% 30.12 in 10.0 mi NE 6.9 mph - 0.00 in   Overcast
6:52 PM 53.1 °F - 37.9 °F 57% 30.12 in 10.0 mi East 4.6 mph - 0.00 in   Overcast
7:52 PM 51.1 °F - 39.0 °F 63% 30.11 in 10.0 mi South 6.9 mph - 0.00 in   Overcast
8:52 PM 50.0 °F - 42.1 °F 74% 30.13 in 10.0 mi SSW 4.6 mph - 0.00 in   Overcast
10:52 PM 46.9 °F - 42.1 °F 83% 30.17 in 10.0 mi WSW 3.5 mph - N/A   Overcast
11:52 PM 48.0 °F - 41.0 °F 77% 30.17 in 10.0 mi Calm Calm - N/A   Overcast